Regional Weather Roundup
Issued by NWS Albany, NY

Home | Current Version | Previous Version | Text Only | Print | Product List | Glossary On
Versions: 1 2 3 4 5 6 7 8 9 10 11 12 13 14 15 16 17 18 19 20 21 22 23 24 25 26 27
000
ASUS41 KALY 241010
RWRALY

NEW YORK STATE HOURLY WEATHER ROUNDUP
NATIONAL WEATHER SERVICE ALBANY NY
600 AM EDT SUN JUL 24 2016

NOTE: "FAIR" INDICATES FEW OR NO CLOUDS BELOW 12,000 FEET WITH NO
SIGNIFICANT WEATHER AND/OR NO OBSTRUCTIONS TO VISIBILITY.

NYZ032-033-038>043-046>054-057>066-NYZ062>081-082-084-241100-
EAST


CITY           SKY/WX    TMP DP  RH WIND       PRES   REMARKS
ALBANY         PTCLDY    62  60  93 CALM      29.98R
GLENS FALLS    FOG       63  61  93 E5        29.98R VSB 1/4
POUGHKEEPSIE   CLEAR     63  59  87 CALM      29.97R
NEWBURGH       CLEAR     64  63  94 CALM      30.00R
MONTGOMERY     CLEAR     61  59  93 CALM      29.99R
WHITE PLAINS   CLEAR     67  60  78 NW7       29.96R
ISLIP          PTCLDY    70  60  70 NW5       29.95R
NEW YORK CITY  PTCLDY    77  61  57 NE3       29.95R
CENTRAL PARK   CLEAR     76  59  55 NE5       29.99R
$$

NYZ005>009-017-018-044>046-055-056-241100-
CENTRAL


CITY           SKY/WX    TMP DP  RH WIND       PRES   REMARKS
FULTON         CLEAR     62  58  86 CALM      30.01S FOG
SYRACUSE       PTCLDY    63  61  93 CALM      30.00R
ROME           CLOUDY    59  58  96 CALM      30.02R
ELMIRA         CLOUDY    58  54  86 CALM      30.03R
BINGHAMTON     PTCLDY    65  57  75 NE3       30.05R
MONTICELLO     CLEAR     61  57  88 N6        30.04S
$$

NYZ026>034-041>043-087-241100-
NORTH


CITY           SKY/WX    TMP DP  RH WIND       PRES   REMARKS
WATERTOWN      MOCLDY    55  54  96 E5        30.01R FOG
FORT DRUM      NOT AVBL
MASSENA        FOG       54  52  93 CALM      30.03R VSB 1/2
SARANAC LAKE   PTCLDY    48  46  93 CALM      30.02R
PLATTSBURGH    CLEAR     59  53  80 NW3       30.00S
$$

NYZ001>004-010>016-019>021-085-241100-
WEST


CITY           SKY/WX    TMP DP  RH WIND       PRES   REMARKS
NIAGARA FALLS  PTCLDY    68  59  73 E3        30.01R
BUFFALO        MOCLDY    66  61  84 S3        30.02R
DUNKIRK        CLEAR     61  60  97 S3        30.01R
JAMESTOWN      PTCLDY    63  57  82 CALM      30.06R
WELLSVILLE     PTCLDY    61  57  87 CALM      30.09R
ROCHESTER      MOCLDY    64  60  87 W3        30.03R
PENN YAN       CLEAR     64  59  83 SW3       30.04R
$$

             KEY
       WCI = WIND CHILL INDEX
       VSB = VISIBILITY
       HX  = HEAT INDEX
$$




USA.gov is the U.S. government's official web portal to all federal, state and local government web resources and services.